Starlink 4724

operational
NORAD ID: 53702 Int'l Des: 2022-107 Owner: SPXS Country: US Constellation: starlink
LEOCIRCULAR

关于 Starlink 4724

正在加载描述...

实时位置

正在加载3D地球...

即将过境

高度历史

Altitude vs Time

uPlot chart will show altitude changes over time

两行轨道根数

1 53702U 22107C 25303.84458461 .00001477 00000-0 11086-3 0 9990
2 53702 53.2159 91.9167 0001220 75.8423 284.2705 15.08836356175490
Epoch: Oct 30, 2025 • Age: 16 hours

当前状态

高度 544.7 km
速度 7.60 km/s
星下点 49.50°N, 21.45°W
发射日期 Sep 5, 2022
运行时间 3.1 years
类型 internet

技术详情

分类 Payload
质量 305.00 kg
干质量 290.00 kg
总质量 305.00 kg
长度 0.20 m
直径 2.80 m
跨度 9.00 m
形状 Box + pan
制造商 SPXS
平台类型 Starlink
阶段状态 In Orbit
所有者/国家 SPXS/US

大型星座

Loading constellations...